When you browse on this site, cookies collect data to enhance your experience and personalize the content and advertising you see.
Visit our Privacy Policy to learn more. By continuing to use the site, you agree to this use of cookies and data.
  • în România
  • Lista ţărilor
  • Pe 7 zile
  • Temperatura apei
  • Meteo pe hartă
  • Widget-uri
  • user-avatar
    Intrare

    Meteo pe oră la Bristol

    Astăzi, 8 Decembrie, Duminică

    Timp Temperatura Precipitaţii Vânt Presiune Umiditate
    00:00 +9°C° 0 mm 10 m/s 750 mmHg 89%
    01:00 +9°C° 1.2 mm 10 m/s 750 mmHg 89%
    02:00 +11°C° 1.2 mm 10 m/s 749 mmHg 89%
    03:00 +12°C° 1.2 mm 10 m/s 748 mmHg 90%
    04:00 +10°C° 0 mm 9 m/s 748 mmHg 87%
    05:00 +9°C° 0 mm 8 m/s 749 mmHg 84%
    06:00 +8°C° 0 mm 7 m/s 749 mmHg 84%
    07:00 +6°C° 0 mm 7 m/s 749 mmHg 83%
    08:00 +6°C° 0 mm 7 m/s 749 mmHg 82%
    09:00 +6°C° 0 mm 8 m/s 750 mmHg 80%
    10:00 +6°C° 0.2 mm 9 m/s 749 mmHg 79%
    11:00 +6°C° 0.2 mm 10 m/s 749 mmHg 77%
    12:00 +7°C° 0 mm 9 m/s 749 mmHg 76%
    13:00 +7°C° 0.3 mm 9 m/s 748 mmHg 75%
    14:00 +6°C° 0.3 mm 9 m/s 748 mmHg 74%
    15:00 +6°C° 0.3 mm 10 m/s 747 mmHg 73%
    16:00 +6°C° 0.2 mm 10 m/s 747 mmHg 74%
    17:00 +5°C° 0.2 mm 9 m/s 747 mmHg 75%
    18:00 +5°C° 0.2 mm 9 m/s 747 mmHg 76%
    19:00 +5°C° 0.2 mm 9 m/s 746 mmHg 78%
    20:00 +5°C° 0.2 mm 10 m/s 745 mmHg 80%
    21:00 +5°C° 0.2 mm 10 m/s 744 mmHg 81%
    22:00 +5°C° 0.9 mm 10 m/s 743 mmHg 81%
    23:00 +5°C° 0.9 mm 10 m/s 743 mmHg 80%

    Mâine, 9 Decembrie, Luni

    Timp Temperatura Precipitaţii Vânt Presiune Umiditate
    00:00 +5°C° 0.9 mm 10 m/s 743 mmHg 79%
    01:00 +4°C° 0.2 mm 11 m/s 743 mmHg 79%
    02:00 +5°C° 0.2 mm 12 m/s 744 mmHg 78%
    03:00 +5°C° 0.2 mm 13 m/s 744 mmHg 78%
    04:00 +5°C° 0 mm 12 m/s 746 mmHg 76%
    05:00 +6°C° 0 mm 11 m/s 748 mmHg 73%
    06:00 +6°C° 0 mm 10 m/s 750 mmHg 71%
    07:00 +5°C° 0 mm 10 m/s 752 mmHg 71%
    08:00 +5°C° 0 mm 9 m/s 754 mmHg 71%
    09:00 +3°C° 0 mm 9 m/s 756 mmHg 70%
    10:00 +5°C° 0 mm 8 m/s 758 mmHg 69%
    11:00 +5°C° 0 mm 8 m/s 759 mmHg 67%
    12:00 +6°C° 0 mm 7 m/s 761 mmHg 66%
    13:00 +5°C° 0 mm 6 m/s 762 mmHg 67%
    14:00 +5°C° 0 mm 6 m/s 763 mmHg 68%
    15:00 +6°C° 0 mm 5 m/s 763 mmHg 69%
    16:00 +5°C° 0 mm 4 m/s 764 mmHg 72%
    17:00 +4°C° 0 mm 3 m/s 765 mmHg 75%
    18:00 +4°C° 0 mm 3 m/s 766 mmHg 78%
    19:00 +4°C° 0 mm 2 m/s 766 mmHg 79%
    20:00 +4°C° 0 mm 2 m/s 767 mmHg 80%
    21:00 +4°C° 0 mm 2 m/s 767 mmHg 81%
    22:00 +4°C° 0 mm 2 m/s 767 mmHg 83%
    23:00 +3°C° 0 mm 3 m/s 767 mmHg 84%

    Poimâine, 10 Decembrie, Marţi

    Timp Temperatura Precipitaţii Vânt Presiune Umiditate
    00:00 +2°C° 0 mm 3 m/s 766 mmHg 85%
    01:00 +3°C° 0 mm 4 m/s 766 mmHg 86%
    02:00 +3°C° 0 mm 4 m/s 765 mmHg 86%
    03:00 +3°C° 0 mm 5 m/s 764 mmHg 87%
    04:00 +3°C° 0 mm 5 m/s 763 mmHg 87%
    05:00 +5°C° 0 mm 5 m/s 762 mmHg 87%
    06:00 +5°C° 0 mm 6 m/s 761 mmHg 87%
    07:00 +5°C° 0.7 mm 7 m/s 760 mmHg 89%
    08:00 +6°C° 0.7 mm 8 m/s 760 mmHg 90%
    09:00 +7°C° 0.7 mm 10 m/s 759 mmHg 91%
    10:00 +7°C° 1.7 mm 10 m/s 757 mmHg 91%
    11:00 +8°C° 1.7 mm 11 m/s 756 mmHg 91%
    12:00 +8°C° 1.7 mm 12 m/s 755 mmHg 91%
    13:00 +9°C° 0.3 mm 12 m/s 754 mmHg 91%
    14:00 +10°C° 0.3 mm 12 m/s 753 mmHg 90%
    15:00 +10°C° 0.3 mm 12 m/s 751 mmHg 89%
    16:00 +9°C° 1.4 mm 11 m/s 751 mmHg 89%
    17:00 +8°C° 1.4 mm 11 m/s 752 mmHg 89%
    18:00 +8°C° 1.4 mm 10 m/s 752 mmHg 89%
    19:00 +7°C° 0.5 mm 8 m/s 753 mmHg 86%
    20:00 +6°C° 0.5 mm 7 m/s 754 mmHg 83%
    21:00 +6°C° 0.5 mm 5 m/s 754 mmHg 79%
    22:00 +6°C° 0 mm 5 m/s 755 mmHg 79%
    23:00 +5°C° 0 mm 4 m/s 755 mmHg 79%

    11 Decembrie, Miercuri

    Timp Temperatura Precipitaţii Vânt Presiune Umiditate
    00:00 +5°C° 0 mm 4 m/s 755 mmHg 79%
    01:00 +4°C° 0 mm 4 m/s 755 mmHg 81%
    02:00 +4°C° 0 mm 3 m/s 755 mmHg 82%
    03:00 +3°C° 0 mm 3 m/s 755 mmHg 83%
    04:00 +3°C° 0 mm 3 m/s 755 mmHg 85%
    05:00 +3°C° 0 mm 4 m/s 754 mmHg 86%
    06:00 +3°C° 0 mm 4 m/s 754 mmHg 87%
    07:00 +2°C° 0.1 mm 5 m/s 753 mmHg 86%
    08:00 +3°C° 0.1 mm 5 m/s 752 mmHg 85%
    09:00 +3°C° 0.1 mm 5 m/s 752 mmHg 85%
    10:00 +4°C° 0.2 mm 6 m/s 751 mmHg 84%
    11:00 +4°C° 0.2 mm 7 m/s 750 mmHg 83%
    12:00 +4°C° 0.2 mm 8 m/s 749 mmHg 82%
    13:00 +4°C° 0.3 mm 7 m/s 749 mmHg 81%
    14:00 +4°C° 0.3 mm 7 m/s 748 mmHg 80%
    15:00 +4°C° 0.3 mm 6 m/s 748 mmHg 79%
    16:00 +3°C° 0 mm 6 m/s 749 mmHg 79%
    17:00 +2°C° 0 mm 6 m/s 749 mmHg 79%
    18:00 +2°C° 0 mm 5 m/s 750 mmHg 79%
    19:00 +1°C° 0 mm 5 m/s 750 mmHg 79%
    20:00 +1°C° 0 mm 5 m/s 751 mmHg 79%
    21:00 +1°C° 0 mm 4 m/s 752 mmHg 80%
    22:00 +1°C° 0 mm 5 m/s 752 mmHg 79%
    23:00 +1°C° 0 mm 5 m/s 752 mmHg 79%

    12 Decembrie, Joi

    Timp Temperatura Precipitaţii Vânt Presiune Umiditate
    00:00 +1°C° 0 mm 6 m/s 753 mmHg 79%
    01:00 +1°C° 0 mm 5 m/s 753 mmHg 79%
    02:00 +1°C° 0 mm 5 m/s 752 mmHg 80%
    03:00 +1°C° 0 mm 5 m/s 752 mmHg 80%
    04:00 +2°C° 0.1 mm 5 m/s 752 mmHg 82%
    05:00 +2°C° 0.1 mm 5 m/s 751 mmHg 85%
    06:00 +2°C° 0.1 mm 6 m/s 750 mmHg 87%
    07:00 +3°C° 0.5 mm 7 m/s 749 mmHg 88%
    08:00 +4°C° 0.5 mm 8 m/s 748 mmHg 88%
    09:00 +5°C° 0.5 mm 9 m/s 746 mmHg 89%
    10:00 +6°C° 1.1 mm 10 m/s 744 mmHg 89%
    11:00 +6°C° 1.1 mm 10 m/s 742 mmHg 90%
    12:00 +6°C° 1.1 mm 11 m/s 740 mmHg 91%
    13:00 +7°C° 1.5 mm 11 m/s 738 mmHg 90%
    14:00 +8°C° 1.5 mm 11 m/s 737 mmHg 88%
    15:00 +9°C° 1.5 mm 11 m/s 736 mmHg 87%
    16:00 +8°C° 0.1 mm 11 m/s 736 mmHg 83%
    17:00 +7°C° 0.1 mm 12 m/s 736 mmHg 78%
    18:00 +5°C° 0.1 mm 12 m/s 736 mmHg 74%
    19:00 +4°C° 0.1 mm 11 m/s 736 mmHg 75%
    20:00 +3°C° 0.1 mm 11 m/s 737 mmHg 76%
    21:00 +3°C° 0.1 mm 11 m/s 737 mmHg 77%
    22:00 +2°C° 0.1 mm 11 m/s 737 mmHg 76%
    23:00 +2°C° 0.1 mm 10 m/s 737 mmHg 74%

    13 Decembrie, Vineri

    Timp Temperatura Precipitaţii Vânt Presiune Umiditate
    00:00 +2°C° 0.1 mm 10 m/s 737 mmHg 73%
    01:00 +2°C° 0.2 mm 10 m/s 738 mmHg 73%
    02:00 +2°C° 0.2 mm 10 m/s 738 mmHg 74%
    03:00 +2°C° 0.2 mm 10 m/s 738 mmHg 74%
    04:00 +2°C° 0.1 mm 10 m/s 739 mmHg 74%
    05:00 +2°C° 0.1 mm 10 m/s 739 mmHg 73%
    06:00 +2°C° 0.1 mm 10 m/s 740 mmHg 72%
    07:00 +2°C° 0 mm 10 m/s 741 mmHg 72%
    08:00 +2°C° 0 mm 10 m/s 741 mmHg 72%
    09:00 +2°C° 0 mm 10 m/s 742 mmHg 72%
    10:00 +2°C° 0.1 mm 10 m/s 742 mmHg 72%
    11:00 +3°C° 0.1 mm 10 m/s 743 mmHg 71%
    12:00 +3°C° 0.1 mm 11 m/s 743 mmHg 70%
    13:00 +3°C° 0 mm 10 m/s 743 mmHg 70%
    14:00 +3°C° 0 mm 9 m/s 743 mmHg 70%
    15:00 +4°C° 0 mm 8 m/s 744 mmHg 71%
    16:00 +4°C° 0 mm 7 m/s 744 mmHg 73%
    17:00 +4°C° 0 mm 6 m/s 744 mmHg 75%
    18:00 +3°C° 0 mm 5 m/s 744 mmHg 76%
    19:00 +3°C° 0.1 mm 5 m/s 744 mmHg 80%
    20:00 +4°C° 0.1 mm 4 m/s 744 mmHg 84%
    21:00 +5°C° 0.1 mm 3 m/s 743 mmHg 88%
    22:00 +6°C° 0.1 mm 5 m/s 743 mmHg 90%
    23:00 +5°C° 0.1 mm 6 m/s 743 mmHg 91%
    Arată mai mult